COSMOS 1989 (ETALON 1)

Last updated on Tue Sep 22 2026 00:03:50 GMT+0000 (Coordinated Universal Time)

1 19751U 89001C 26264.40656028 .00000040 00000+0 00000+0 0 9994 2 19751 65.0070 68.9083 0023428 217.3891 142.3235 2.13156079293410
UTC large
Height (km)
Speed (km/s)
/
Latitude / Longitude
Inclination (degrees)
Orbital Period (minutes)
Azimuth
Elevation
Range (km)
Doppler Factor

Next 0 passes for location: London (51.5072 / 0.1276)

No passes found over London.
COSMOS 1989 (ETALON 1)